Location: Cornospital
(48.0620°N, 3.3837°W)
Time: 20:46:00
(UTC+00:00)

GENESIS II - Visible Passes

Search period start: 28 October 2021 00:00
Search period end: 07 November 2021 00:00
Orbit: 497 x 526 km, 64.5° (Epoch: 27 October)

Date Brightness Start Highest point End Pass type
(mag) Time Alt. Az. Time Alt. Az. Time Alt. Az.
28 Oct 5.2 18:14:13 10° NW 18:18:01 49° WSW 18:21:50 10° SSE visible
29 Oct 5.2 17:57:10 10° NW 18:00:59 50° WSW 18:04:47 10° SSE visible
30 Oct 5.3 17:40:08 10° NW 17:43:57 50° WSW 17:47:45 10° SSE visible
31 Oct 5.3 17:23:05 10° NW 17:26:54 50° WSW 17:30:43 10° SSE visible
